GFSFLT2_sfc_thetae_366.txt.gz
Theta_e
318 320 320 321 321 322 321 322 321 314 313 312 312 312 312 312 312 312 312 312 312 313 314 315 316 316 316
313 315 318 320 320 320 318 319 319 314 312 311 310 310 310 310 310 310 309 309 309 309 310 310 311 312 313
311 314 314 316 315 316 314 313 311 306 309 309 309 308 306 306 307 307 306 305 305 306 306 306 307 308 310
308 308 310 310 307 307 305 305 304 305 306 305 305 304 305 306 304 303 302 303 304 304 304 303 303 304 306
302 302 304 302 300 298 297 298 299 303 300 300 299 300 301 303 302 301 301 301 302 301 302 302 302 302 303
298 297 297 296 297 294 294 292 291 300 295 294 298 298 300 301 300 299 299 300 299 299 300 300 301 301 301
295 295 293 294 293 292 292 292 291 294 294 292 295 295 298 296 297 298 297 298 297 297 299 299 299 299 299
293 293 293 294 294 293 291 291 292 293 293 287 293 292 293 295 298 296 295 295 295 296 296 296 297 296 296
289 290 291 292 292 292 290 288 287 289 291 287 290 288 290 293 295 293 293 293 294 294 294 294 294 294 294
289 290 290 290 288 289 288 284 283 285 291 286 287 286 283 292 290 291 291 292 292 292 292 293 293 291 292
286 286 285 286 286 286 287 285 283 284 288 287 285 285 284 284 288 289 291 290 291 291 291 291 291 290 288
283 282 282 282 283 284 284 284 286 285 288 287 285 284 283 281 283 287 288 289 288 286 288 289 289 289 289
280 280 280 282 282 282 283 284 284 284 286 287 285 284 283 281 281 284 283 284 286 286 285 285 285 286 284
279 279 280 281 280 280 279 280 280 281 283 284 284 284 281 282 282 281 284 281 284 284 284 284 285 287 286
278 278 277 278 277 279 279 278 277 277 278 281 283 283 282 280 279 282 283 283 284 283 283 281 283 285 287
277 276 275 275 275 277 277 277 276 276 277 279 279 278 279 282 283 282 282 282 283 283 284 281 281 285 286
276 275 274 274 274 275 275 275 275 276 277 278 277 276 273 272 278 282 279 279 281 282 283 283 282 283 284

GFSFLT2_sfc_thetae_369.txt.gz
Theta_e
316 318 318 319 320 320 319 320 319 313 313 312 311 311 311 310 310 309 309 309 309 310 310 311 311 311 312
315 315 316 318 318 317 317 316 315 311 309 308 309 307 306 306 307 306 305 305 304 305 306 306 307 307 308
312 314 314 315 313 311 310 309 307 305 306 307 307 305 303 302 305 305 303 301 301 302 302 302 303 304 305
308 308 308 308 306 302 300 301 300 300 303 301 302 301 301 303 304 300 299 299 300 300 300 300 301 301 302
303 302 302 301 298 297 296 296 295 298 294 294 294 296 297 301 299 297 299 299 299 298 298 299 299 299 300
299 298 298 297 297 294 292 290 289 296 291 290 293 293 295 295 297 298 297 297 297 296 297 297 296 296 296
295 295 293 293 292 291 291 289 288 291 290 286 290 290 293 292 294 297 295 295 294 294 295 294 294 295 295
293 293 293 292 292 292 290 290 290 290 291 283 287 286 289 289 293 295 294 293 293 294 293 293 293 294 294
289 290 291 291 290 290 287 284 282 284 289 286 284 284 284 286 291 292 292 292 293 292 292 292 292 292 291
289 289 288 287 288 287 286 281 281 280 286 281 282 282 279 283 285 287 288 291 291 291 290 291 291 288 287
285 285 285 284 284 284 284 282 279 281 285 284 280 281 279 281 281 283 286 286 286 286 289 289 289 289 285
283 281 281 281 281 281 282 282 282 282 284 283 280 280 277 278 278 281 282 284 284 283 285 286 287 288 288
280 279 279 280 281 281 281 281 281 282 284 281 279 280 279 277 276 277 279 279 283 283 283 283 283 283 282
278 279 280 279 278 279 278 278 277 278 281 281 280 280 277 277 277 276 278 278 282 281 282 282 282 283 283
278 277 277 277 277 278 277 276 273 274 275 277 277 277 277 276 275 276 278 278 279 279 279 279 282 282 282
277 276 275 274 274 275 275 272 273 273 273 275 275 274 274 274 280 274 275 276 277 277 278 279 279 281 283
274 273 273 272 273 272 273 273 272 272 273 274 272 272 270 268 273 280 274 274 275 277 278 278 278 280 281

GFSFLT2_sfc_thetae_372.txt.gz
Theta_e
311 312 312 313 315 317 317 317 315 311 310 310 310 308 306 305 304 306 305 305 304 305 306 306 306 307 307
312 311 311 313 316 315 315 312 309 307 308 308 307 306 302 302 303 304 302 301 301 302 302 303 303 304 304
313 313 312 313 310 309 307 303 303 302 304 301 301 300 301 302 302 299 299 300 300 299 299 300 301 302 302
314 310 309 307 305 300 299 299 297 297 298 298 298 298 300 301 299 297 299 299 299 298 298 298 298 298 298
304 303 303 301 298 297 295 293 294 293 291 291 292 293 294 295 295 296 298 297 297 296 296 296 295 295 296
299 298 297 296 294 292 291 288 287 292 288 288 290 289 291 291 293 295 297 296 295 294 295 294 294 294 295
292 291 291 291 292 291 290 289 288 289 288 283 287 285 289 289 292 295 295 294 293 293 293 293 293 293 293
292 291 291 291 291 291 290 288 286 288 288 277 280 281 286 287 291 294 293 292 292 292 292 291 292 292 292
290 290 290 290 290 289 284 281 278 280 286 282 279 280 280 283 286 290 290 290 291 290 291 290 291 290 288
289 287 287 287 287 285 283 279 278 276 282 280 279 279 275 278 282 284 284 288 287 288 289 289 289 286 285
283 282 282 282 282 283 283 281 278 277 282 278 277 278 279 277 277 280 281 281 282 284 287 288 288 287 283
279 278 278 278 278 279 280 280 279 280 282 282 279 274 275 276 275 278 279 280 280 281 281 285 286 286 287
278 277 278 277 280 279 279 280 280 280 282 280 276 275 272 276 275 275 276 276 279 279 280 280 279 280 280
277 278 278 278 277 278 276 276 273 276 279 279 278 276 269 274 274 274 276 275 278 278 278 278 279 280 281
276 276 276 276 275 276 275 271 268 270 273 274 273 274 274 273 271 273 274 274 275 276 275 275 278 280 280
274 274 272 271 271 272 271 268 266 267 267 268 269 272 270 270 277 271 271 272 274 274 276 275 274 278 280
269 267 267 267 269 267 268 266 266 267 269 267 264 264 269 267 271 278 272 273 274 274 275 276 275 277 278

GFSFLT2_sfc_thetae_375.txt.gz
Theta_e
309 309 309 311 313 316 316 316 312 308 309 309 308 305 302 302 304 305 302 302 302 303 303 303 303 304 304
307 308 309 311 312 315 313 306 305 304 306 303 302 301 301 303 302 300 299 301 300 300 300 301 301 301 301
308 312 310 310 310 308 305 302 302 300 301 299 299 299 300 302 299 297 299 299 299 298 298 297 298 297 298
312 313 311 306 303 300 299 297 296 297 297 296 296 297 299 297 296 294 297 297 297 296 296 296 295 296 297
310 304 302 298 296 295 293 293 294 293 292 292 292 292 293 293 293 293 297 296 295 295 295 294 294 294 295
299 297 294 292 292 292 291 289 288 293 290 289 290 288 289 288 292 295 295 295 293 293 294 293 293 293 293
294 293 291 291 292 291 290 289 288 289 288 285 286 285 287 286 292 294 292 291 291 291 291 291 291 292 291
292 291 291 290 290 290 289 288 286 286 286 279 282 283 285 286 290 291 290 290 290 289 290 290 290 290 289
293 291 290 290 289 289 285 281 277 279 282 280 278 278 280 281 285 288 288 288 287 288 289 289 289 289 286
285 286 286 286 286 283 281 278 277 274 280 276 277 277 273 277 280 282 281 285 285 286 288 287 287 284 282
283 282 281 281 280 281 281 279 275 275 281 277 275 276 274 276 276 277 279 279 279 281 284 285 286 285 280
279 278 278 278 278 277 279 279 279 279 281 281 270 271 275 275 273 276 276 278 278 278 279 281 283 283 284
277 277 277 277 278 278 278 279 278 279 280 279 274 274 272 268 272 273 275 274 277 277 277 277 276 277 277
277 277 277 276 276 277 275 275 271 273 278 278 277 275 265 270 271 271 273 269 275 275 275 275 276 278 278
276 275 275 275 274 274 273 268 266 267 268 271 272 273 272 269 263 271 272 272 274 273 273 274 276 277 277
274 273 271 270 270 271 269 266 264 265 264 265 264 266 266 268 275 268 267 270 272 273 274 272 273 276 277
270 269 267 267 266 265 267 266 264 264 263 263 258 259 264 265 270 278 271 272 272 272 273 274 273 275 277

GFSFLT2_sfc_thetae_381.txt.gz
Theta_e
304 305 305 307 309 310 310 307 305 308 309 305 303 302 301 303 301 300 300 300 300 300 300 300 300 300 300
304 304 304 306 306 306 306 304 303 304 303 301 299 300 303 301 298 296 298 298 298 298 298 298 298 298 299
306 306 305 305 305 304 301 298 300 301 299 298 298 300 298 297 295 295 297 297 296 296 296 295 296 296 297
306 306 306 306 305 302 297 296 295 296 295 295 296 297 295 293 293 294 296 295 294 294 293 293 293 294 295
305 305 304 300 300 297 294 294 292 294 293 293 293 293 290 289 291 295 292 292 292 291 291 292 292 293 293
307 307 306 297 295 294 293 291 290 291 290 289 291 289 288 285 293 292 290 290 289 290 290 291 291 290 290
308 300 295 294 293 292 291 290 288 285 288 286 285 284 284 285 292 290 289 289 288 288 289 289 288 288 288
293 292 292 293 293 292 291 286 285 283 283 282 281 280 281 283 289 287 287 287 287 287 288 288 287 287 286
292 292 292 293 291 288 285 284 282 281 282 280 279 279 280 280 281 285 285 285 285 285 286 285 285 285 281
283 284 284 286 286 285 284 281 280 279 281 278 278 278 274 278 279 279 279 282 282 283 283 283 284 280 278
281 280 280 280 281 281 282 281 278 278 281 277 275 276 275 276 277 276 277 277 277 278 280 281 282 281 277
279 278 278 278 278 279 280 280 280 279 279 279 272 273 272 269 272 276 274 276 276 275 275 278 280 280 281
278 278 278 278 279 279 279 278 278 278 278 278 275 275 272 268 269 271 272 272 272 274 274 274 274 275 274
277 277 277 276 276 276 274 274 271 272 276 276 275 273 264 268 267 265 269 266 272 273 273 273 274 275 275
276 275 274 274 273 273 271 269 267 266 268 270 270 270 269 266 265 266 267 270 272 272 271 271 273 275 275
274 273 272 271 270 270 269 268 267 266 264 263 261 261 263 266 272 266 265 265 270 271 271 270 271 274 275
271 271 271 272 267 267 268 267 266 266 262 258 254 255 255 257 268 276 267 269 270 269 271 271 271 273 275